Cahokia, IL

9:10 AM CST on January 23, 2018 (GMT -0600)
Saint Louis Downtown

Weather History for KCPS - November, 2013

Change the Weather History Date:

Tuesday, November 12, 2013

  Actual Average Record
Temperature  
Mean Temperature 28 °F -  
Max Temperature 36 °F 54 °F 75 °F (1958)
Min Temperature 19 °F 38 °F 19 °F (2013)
Degree Days  
Heating Degree Days 38    
Moisture  
Dew Point 18 °F    
Average Humidity 66    
Maximum Humidity 89    
Minimum Humidity 43    
Precipitation  
Precipitation 0.00 in - - ()
Sea Level Pressure  
Sea Level Pressure 30.69 in    
Wind  
Wind Speed 14 mph (North)    
Max Wind Speed 20 mph    
Max Gust Speed 28 mph    
Visibility 10 miles    
Events Snow    
Averages and records for this station are not official NWS values.
T = Trace of Precipitation, MM = Missing Value Source: NWS Daily Summary

Daily Weather History Graph

Daily Weather History Graph

Search for Another Location

Airport or City:

Trip Planner

Search our weather history database for the weather conditions in past years. The results will help you decide how hot, cold, wet, or windy it might be!

Date:

Astronomy

Nov. 12, 2013 Rise Set
Actual Time 6:39 AM CST 4:49 PM CST
Civil Twilight 6:11 AM CST 5:17 PM CST
Nautical Twilight 5:39 AM CST 5:49 PM CST
Astronomical Twilight 5:08 AM CST 6:21 PM CST
Moon 2:01 PM CST (11/12) 1:32 AM CST (11/12)
Length of Visible Light 11h 06m
Length of Day
10h 10m
Waxing Gibbous, 76% of the Moon is Illuminated
Nov 12
Waxing Gibbous
Nov 17
Full
Nov 25
Last Quarter
Dec 2
New
Dec 9
First Quarter

Hourly Weather History & Observations

Time (CST) Temp. Windchill Dew Point Humidity Pressure Visibility Wind Dir Wind Speed Gust Speed Precip Events Conditions
12:53 AM 32.0 °F 20.5 °F 27.0 °F 82% 30.53 in 4.0 mi North 18.4 mph 24.2 mph 0.00 in Snow Light Snow
1:11 AM 32.0 °F 20.1 °F 26.6 °F 80% 30.53 in 9.0 mi North 19.6 mph 26.5 mph 0.00 in   Overcast
1:53 AM 32.0 °F 20.5 °F 25.0 °F 75% 30.55 in 10.0 mi North 18.4 mph 26.5 mph 0.00 in   Overcast
2:36 AM 30.2 °F 17.8 °F 23.0 °F 75% 30.57 in 10.0 mi North 19.6 mph 25.3 mph N/A   Overcast
2:53 AM 30.0 °F 18.3 °F 21.0 °F 69% 30.58 in 10.0 mi North 17.3 mph 27.6 mph N/A   Mostly Cloudy
3:44 AM 28.4 °F 15.8 °F 21.2 °F 74% 30.60 in 10.0 mi North 18.4 mph - N/A   Mostly Cloudy
3:53 AM 28.0 °F 16.1 °F 19.0 °F 69% 30.61 in 10.0 mi North 16.1 mph 26.5 mph N/A   Mostly Cloudy
4:03 AM 28.4 °F 16.6 °F 19.4 °F 69% 30.61 in 10.0 mi North 16.1 mph - N/A   Scattered Clouds
4:53 AM 27.0 °F 14.7 °F 17.1 °F 66% 30.66 in 10.0 mi North 16.1 mph - N/A   Clear
5:53 AM 25.0 °F 12.6 °F 17.1 °F 72% 30.69 in 10.0 mi North 15.0 mph - N/A   Clear
6:53 AM 24.1 °F 14.4 °F 17.1 °F 75% 30.73 in 10.0 mi North 9.2 mph - N/A   Clear
7:53 AM 26.1 °F 15.0 °F 17.1 °F 69% 30.76 in 10.0 mi North 12.7 mph - N/A   Clear
8:53 AM 27.0 °F 16.7 °F 17.1 °F 66% 30.78 in 10.0 mi NNW 11.5 mph 20.7 mph N/A   Clear
9:53 AM 30.0 °F 19.1 °F 17.1 °F 59% 30.78 in 10.0 mi North 15.0 mph 21.9 mph N/A   Clear
10:53 AM 32.0 °F 21.6 °F 17.1 °F 54% 30.79 in 10.0 mi North 15.0 mph 24.2 mph N/A   Clear
11:53 AM 33.1 °F 23.4 °F 17.1 °F 52% 30.77 in 10.0 mi North 13.8 mph - N/A   Clear
12:53 PM 34.0 °F 26.0 °F 16.0 °F 48% 30.75 in 10.0 mi North 10.4 mph - N/A   Clear
1:53 PM 35.1 °F 25.5 °F 16.0 °F 46% 30.74 in 10.0 mi North 15.0 mph 20.7 mph N/A   Clear
2:53 PM 36.0 °F 26.7 °F 15.1 °F 43% 30.74 in 10.0 mi North 15.0 mph 19.6 mph N/A   Clear
3:53 PM 34.0 °F 25.0 °F 15.1 °F 46% 30.74 in 10.0 mi North 12.7 mph - N/A   Clear
4:53 PM 32.0 °F 25.6 °F 16.0 °F 52% 30.74 in 10.0 mi North 6.9 mph - N/A   Clear
5:53 PM 28.9 °F 22.8 °F 16.0 °F 58% 30.73 in 10.0 mi North 5.8 mph - N/A   Clear
6:53 PM 28.0 °F - 16.0 °F 61% 30.73 in 10.0 mi Calm Calm - N/A   Clear
7:53 PM 28.0 °F - 16.0 °F 61% 30.74 in 10.0 mi Calm Calm - N/A   Clear
8:53 PM 23.0 °F - 17.1 °F 78% 30.74 in 10.0 mi Calm Calm - N/A   Clear
9:53 PM 21.9 °F - 18.0 °F 85% 30.74 in 8.0 mi Calm Calm - N/A   Clear
10:53 PM 19.9 °F - 17.1 °F 89% 30.73 in 8.0 mi Calm Calm - N/A   Clear
11:53 PM 19.0 °F - 15.1 °F 85% 30.73 in 10.0 mi Calm Calm - N/A   Clear